Regional Weather Roundup
Issued by NWS Goodland, KS

Home | Current Version | Previous Version | Graphics & Text | Print | Product List | Glossary On
Versions: 1 2 3 4 5 6 7 8 9 10 11 12 13 14 15 16 17 18 19 20 21 22 23 24 25 26 27 28 29 30 31 32 33 34 35 36 37 38 39 40 41 42 43 44 45 46 47 48 49 50
000
ASUS43 KGLD 201459
RWRGLD

GOODLAND FORECAST AREA HOURLY WEATHER ROUNDUP
NATIONAL WEATHER SERVICE GOODLAND KS
900 AM MDT WED SEP 20 2017

...OFFICIAL OBSERVATIONS...

CITY           SKY/WX    TMP DP  RH WIND       PRES   REMARKS
GOODLAND KS    SUNNY     60  35  39 N10       29.99R
HILL CITY KS   SUNNY     65  41  41 N15       29.95R
IMPERIAL NEB   SUNNY     58  36  43 W5        29.99R
MCCOOK NEB     SUNNY     60  41  49 W3        29.95S
AKRON CO       SUNNY     56  26  31 SE6       30.01S
BURLINGTON CO  SUNNY     61  28  28 NE8       30.02R
LIMON CO       SUNNY     53  28  38 S10       30.07R
$$

...UNOFFICIAL OBSERVATIONS...

CITY           SKY/WX    TMP DP  RH WIND       PRES   REMARKS
LENORA KS        N/A     62  32  32 MISG        N/A
NORTON KS      SUNNY     63  34  34 NW10      29.93R
SHARON SPRINGS   N/A     57  38  49 N6          N/A
TRENTON NEB      N/A     61  32  33 N6          N/A
KIT CARSON CO    N/A     58  28  31 MISG        N/A
YUMA CO        FAIR      55  28  35 CALM      30.00S
$$




USA.gov is the U.S. government's official web portal to all federal, state and local government web resources and services.